シューメーカー第1彗星

102P/Shoemaker 1 (2006)

English version
Home page
Total 6,336 html files since Dec. 4, 1995
Updated on April 20, 2007

---------------------------------------------------------------------

・ プロフィール

・ 軌道要素

Epoch 2006 May 25.0 TT = JDT 2453880.5
T 2006 June 6.78287 TT                                  MPC
q   1.9737575            (2000.0)            P               Q
n   0.13630822     Peri.   18.53268     +0.98840654     -0.00699718
a   3.7392804      Node   339.94674     -0.10852470     +0.66605234
e   0.4721558      Incl.   26.25210     +0.10618333     +0.74587219
P   7.23
From 18 observations 1991-2006, mean residual 0".82.  Nongravitational
   parameters A1 = +2.32 +/- 0.53, A2 = -0.6508 +/- 0.0190.

・ 星図

・ 光度変化

        m1 = 14.5 + 5 logΔ + 10.0 log r

        ※ 灰色の曲線は、m1 = 2.5 + 5 logΔ + 35 log r の光度曲線です。

---------------------------------------------------------------------

軌道要素はM.P.E.C. 2006-O54に掲載されたものです。
星図は StellaNavigator Ver.2.0 for Windows (アストロアーツ 編著 / アスキー出版局刊) で作成したものです。
光度グラフはComet for Windowsで作成したものです。

---------------------------------------------------------------------

Copyright(C) 1995-2008 Seiichi Yoshida (comet@aerith.net). All rights reserved.